Stations météo

réclame
Mon MeteoGroup
Malmo/Sturup, Suède (2636): Température de l'air & dewpoint: 12.06.2018 13:00:00 - 18.06.2018 13:00:00 (CEST)Malmo/Sturup, Suède (2636): Vitesse du vent: 12.06.2018 13:00:00 - 18.06.2018 13:00:00 (CEST)Malmo/Sturup, Suède (2636): Direction du vent: 12.06.2018 13:00:00 - 18.06.2018 13:00:00 (CEST)Malmo/Sturup, Suède (2636): reduced air pressure: 12.06.2018 13:00:00 - 18.06.2018 13:00:00 (CEST)Malmo/Sturup, Suède (2636): visibility: 12.06.2018 13:00:00 - 18.06.2018 13:00:00 (CEST)
Date & Time tt [°C] td [°C] ff [km/h] ff [knt] dd ppp [hPa] vv [km]
18.06.2018 13:00:00 - - - - - - -
18.06.2018 12:00:00 18,7 10,8 21 11 SW 1017,4 10
18.06.2018 11:00:00 17,9 10,0 18 10 WSW 1017,6 10
18.06.2018 10:00:00 17,6 10,5 18 10 W 1017,5 10
18.06.2018 09:00:00 17,4 10,5 18 10 WSW 1017,3 10
18.06.2018 08:00:00 15,5 11,1 11 6 WSW 1017,3 10
18.06.2018 07:00:00 13,9 11,2 8 4 WSW 1017,3 10
18.06.2018 06:00:00 13,0 11,1 8 4 W 1017,3 10
18.06.2018 05:00:00 13,1 10,8 8 4 WSW 1016,8 10
18.06.2018 04:00:00 12,8 10,2 9 5 SW 1016,9 10
18.06.2018 03:00:00 9,8 7,9 9 5 SW 1017,1 10
18.06.2018 02:00:00 12,8 8,3 9 5 W 1016,8 10
18.06.2018 01:00:00 13,6 8,4 9 5 WSW 1016,4 10
18.06.2018 00:00:00 14,6 7,6 11 6 WSW 1016,1 10
17.06.2018 23:00:00 15,6 7,1 16 9 W 1015,7 10
17.06.2018 22:00:00 16,7 8,1 13 7 WSW 1015,5 10
17.06.2018 21:00:00 17,7 8,3 18 10 W 1015,1 10
17.06.2018 20:00:00 18,2 10,6 16 9 W 1014,4 10
17.06.2018 19:00:00 19,5 10,5 16 9 W 1014,1 10
17.06.2018 18:00:00 19,1 8,7 24 13 W 1014,1 10
17.06.2018 17:00:00 19,5 11,5 28 15 WSW 1013,7 10
17.06.2018 16:00:00 20,1 9,9 29 16 WSW 1013,4 10
17.06.2018 15:00:00 21,7 11,7 28 15 SW 1012,9 10
17.06.2018 14:00:00 19,8 13,0 26 14 WSW 1012,9 10
17.06.2018 13:00:00 19,5 13,0 21 11 WSW 1012,6 10
17.06.2018 12:00:00 19,6 15,5 22 12 SW 1012,3 10
17.06.2018 11:00:00 18,5 14,8 11 6 SSW 1012,3 10
17.06.2018 10:00:00 16,4 15,4 0 0 N 1012,5 10
17.06.2018 09:00:00 16,0 15,2 8 4 W 1012,8 5
17.06.2018 08:00:00 18,0 14,7 5 3 E 1013,1 10
17.06.2018 07:00:00 17,2 14,1 8 4 ESE 1012,2 10
17.06.2018 06:00:00 15,1 12,4 13 7 ESE 1012,3 10
17.06.2018 05:00:00 14,3 12,3 11 6 ESE 1012,7 10
17.06.2018 04:00:00 14,0 12,2 13 7 ESE 1013,0 10
17.06.2018 03:00:00 14,1 12,3 18 10 ESE 1013,5 10
17.06.2018 02:00:00 13,6 12,3 16 9 E 1013,9 10
17.06.2018 01:00:00 13,7 12,4 13 7 E 1014,8 10
17.06.2018 00:00:00 14,7 11,1 18 10 ESE 1015,6 10
16.06.2018 23:00:00 15,0 11,2 18 10 ESE 1014,5 10
16.06.2018 22:00:00 15,6 11,8 11 6 SSW 1015,2 10
16.06.2018 21:00:00 17,1 10,0 16 9 ESE 1015,1 10
16.06.2018 20:00:00 17,6 9,5 22 12 ESE 1015,2 10
16.06.2018 19:00:00 18,4 6,9 21 11 SE 1015,5 10
16.06.2018 18:00:00 18,5 7,9 21 11 ESE 1015,9 10
16.06.2018 17:00:00 19,0 8,6 18 10 ESE 1016,4 10
16.06.2018 16:00:00 19,3 8,6 16 9 SE 1016,6 10
16.06.2018 15:00:00 19,8 6,9 16 9 SE 1017,0 10
16.06.2018 14:00:00 19,2 8,2 16 9 SE 1017,7 10
16.06.2018 13:00:00 18,2 9,3 16 9 SE 1018,1 10
16.06.2018 12:00:00 18,5 12,0 13 7 SSE 1018,1 10
16.06.2018 11:00:00 19,6 8,3 5 3 - 1018,1 10
16.06.2018 10:00:00 20,4 7,7 8 4 S 1018,0 10
16.06.2018 09:00:00 19,9 8,6 8 4 SSW 1018,0 10
16.06.2018 08:00:00 17,7 12,8 5 3 SE 1018,1 10
16.06.2018 07:00:00 15,2 12,3 4 2 SSE 1018,2 27
16.06.2018 06:00:00 10,2 9,4 4 2 ESE 1018,2 15
16.06.2018 05:00:00 8,8 8,3 4 2 E 1018,2 20
16.06.2018 04:00:00 7,9 7,1 4 2 ESE 1018,3 35
16.06.2018 03:00:00 7,9 6,8 0 0 N 1018,3 50
16.06.2018 02:00:00 7,8 6,7 0 0 N 1018,1 40
16.06.2018 01:00:00 7,5 6,1 4 2 ESE 1017,9 40
16.06.2018 00:00:00 8,5 7,0 2 1 E 1017,9 10
15.06.2018 23:00:00 10,1 6,8 4 2 SSE 1017,9 10
15.06.2018 22:00:00 12,4 8,1 0 0 N 1017,6 10
15.06.2018 21:00:00 16,7 6,8 5 3 WNW 1017,2 10
15.06.2018 20:00:00 19,1 5,2 13 7 NW 1017,0 10
15.06.2018 19:00:00 19,5 5,2 16 9 NW 1016,9 10
15.06.2018 18:00:00 20,3 6,3 16 9 WNW 1016,9 10
15.06.2018 17:00:00 20,2 7,2 15 8 WNW 1016,7 10
15.06.2018 16:00:00 19,5 8,2 18 10 NW 1016,5 10
15.06.2018 15:00:00 19,1 8,4 15 8 WNW 1016,4 10
15.06.2018 14:00:00 18,9 8,5 13 7 WNW 1016,4 10
15.06.2018 13:00:00 19,4 10,1 13 7 W 1016,3 10
15.06.2018 12:00:00 18,1 10,2 18 10 W 1016,0 10
15.06.2018 11:00:00 18,5 10,1 13 7 W 1015,7 10
15.06.2018 10:00:00 17,0 10,4 13 7 W 1015,5 10
15.06.2018 09:00:00 16,5 11,0 13 7 W 1015,1 10
15.06.2018 08:00:00 15,5 12,1 13 7 W 1014,7 10
15.06.2018 07:00:00 15,0 12,9 11 6 W 1014,2 10
15.06.2018 06:00:00 14,3 12,9 11 6 W 1013,8 10
15.06.2018 05:00:00 13,9 12,6 11 6 W 1013,3 10
15.06.2018 04:00:00 14,8 14,0 13 7 WSW 1013,0 9
15.06.2018 03:00:00 15,1 13,8 15 8 SW 1012,6 10
15.06.2018 02:00:00 15,5 13,3 15 8 WSW 1012,5 10
15.06.2018 01:00:00 15,8 12,3 11 6 SW 1012,5 10
15.06.2018 00:00:00 16,1 12,3 11 6 WSW 1012,6 10
14.06.2018 23:00:00 16,8 11,7 16 9 SW 1012,6 10
14.06.2018 22:00:00 15,9 11,5 13 7 S 1012,0 10
14.06.2018 21:00:00 16,7 11,4 18 10 S 1012,0 10
14.06.2018 20:00:00 18,0 9,4 24 13 SSW 1011,8 10
14.06.2018 19:00:00 19,1 9,0 26 14 SSW 1011,7 10
14.06.2018 18:00:00 19,4 9,9 29 16 SSW 1011,9 10
14.06.2018 17:00:00 19,5 10,2 28 15 SSW 1012,1 10
14.06.2018 16:00:00 19,3 10,6 28 15 SSW 1012,3 10
14.06.2018 15:00:00 18,8 10,1 24 13 SSW 1012,7 10
14.06.2018 14:00:00 17,4 10,0 26 14 SW 1013,0 10
14.06.2018 13:00:00 18,3 10,1 21 11 SW 1012,8 10
14.06.2018 12:00:00 16,5 9,2 18 10 SW 1013,5 10
14.06.2018 11:00:00 17,2 7,8 15 8 SW 1013,5 10
14.06.2018 10:00:00 15,7 6,9 13 7 WSW 1013,5 10
14.06.2018 09:00:00 14,9 7,0 13 7 WSW 1013,5 10
14.06.2018 08:00:00 13,8 7,1 16 9 W 1013,4 10
14.06.2018 07:00:00 13,9 7,7 9 5 W 1013,2 10
14.06.2018 06:00:00 13,4 7,6 9 5 WSW 1013,1 10
14.06.2018 05:00:00 12,7 8,0 9 5 W 1012,9 10
14.06.2018 04:00:00 12,5 8,2 11 6 W 1012,8 10
14.06.2018 03:00:00 12,4 9,0 13 7 W 1012,4 10
14.06.2018 02:00:00 11,9 8,6 9 5 WSW 1012,1 10
14.06.2018 01:00:00 12,7 8,8 9 5 WNW 1011,7 10
14.06.2018 00:00:00 13,4 8,9 13 7 WNW 1011,9 10
13.06.2018 23:00:00 14,2 9,0 15 8 WNW 1011,7 10
13.06.2018 22:00:00 15,3 8,8 13 7 WNW 1010,8 10
13.06.2018 21:00:00 17,6 8,7 15 8 WNW 1010,0 10
13.06.2018 20:00:00 19,0 9,8 4 2 - 1009,5 10
13.06.2018 19:00:00 18,5 12,5 8 4 E 1009,3 10
13.06.2018 18:00:00 16,7 12,2 16 9 NE 1009,6 10
13.06.2018 17:00:00 21,2 11,2 21 11 W 1008,4 10
13.06.2018 16:00:00 20,9 12,6 22 12 W 1008,4 10
13.06.2018 15:00:00 20,0 12,2 21 11 WSW 1008,2 10
13.06.2018 14:00:00 18,6 13,9 21 11 W 1008,2 10
13.06.2018 13:00:00 18,5 15,2 21 11 W 1008,2 10
13.06.2018 12:00:00 16,9 15,1 13 7 W 1008,1 10
13.06.2018 11:00:00 16,1 15,1 18 10 NW 1008,3 10
13.06.2018 10:00:00 18,8 14,7 9 5 SW 1007,9 10
13.06.2018 09:00:00 16,1 14,1 8 4 SSW 1008,1 10
13.06.2018 08:00:00 15,5 13,7 9 5 SW 1007,9 10
13.06.2018 07:00:00 15,0 13,5 5 3 WSW 1007,8 10
13.06.2018 06:00:00 14,4 13,1 4 2 - 1007,8 10
13.06.2018 05:00:00 13,3 12,5 8 4 W 1007,9 10
13.06.2018 04:00:00 13,6 12,3 13 7 W 1007,9 10
13.06.2018 03:00:00 14,3 12,9 9 5 W 1008,1 10
13.06.2018 02:00:00 14,7 13,2 5 3 SW 1008,0 10
13.06.2018 01:00:00 14,7 13,1 9 5 SW 1008,2 10
13.06.2018 00:00:00 14,7 12,6 8 4 SW 1008,0 10
12.06.2018 23:00:00 12,8 11,4 4 2 - 1008,2 10
12.06.2018 22:00:00 14,8 12,1 5 3 W 1008,0 10
12.06.2018 21:00:00 16,6 11,9 13 7 W 1007,7 10
12.06.2018 20:00:00 17,2 12,1 15 8 W 1007,5 10
12.06.2018 19:00:00 18,7 12,2 18 10 WSW 1007,6 10
12.06.2018 18:00:00 19,6 12,4 16 9 W 1007,4 10
12.06.2018 17:00:00 18,9 11,9 15 8 WNW 1007,7 10
12.06.2018 16:00:00 19,2 12,0 13 7 WNW 1007,8 10
12.06.2018 15:00:00 18,7 12,4 16 9 WNW 1007,9 10
12.06.2018 14:00:00 18,7 12,0 15 8 WSW 1007,7 10
12.06.2018 13:00:00 18,2 12,4 15 8 W 1007,7 10

tt = Température de l'air
td = dewpoint
ff = Vitesse du vent
dd = Direction du vent
ppp = reduced air pressure
vv = visibility

stations d'obs. à proximité